Weather History for KADS - January, 2013

Change the Weather History Date:

Saturday, January 5, 2013

  Actual Average Record
Temperature  
Mean Temperature 44 °F -  
Max Temperature 50 °F 54 °F 75 °F (2008)
Min Temperature 39 °F 38 °F 20 °F (2014)
Degree Days  
Heating Degree Days 20    
Moisture  
Dew Point 35 °F    
Average Humidity 72    
Maximum Humidity 87    
Minimum Humidity 57    
Precipitation  
Precipitation 0.00 in - - ()
Sea Level Pressure  
Sea Level Pressure 30.31 in    
Wind  
Wind Speed 4 mph (SSW)    
Max Wind Speed 10 mph    
Max Gust Speed -    
Visibility 10 miles    
Events      
Averages and records for this station are not official NWS values.
T = Trace of Precipitation, MM = Missing Value Source: NWS Daily Summary

Daily Weather History Graph

Daily Weather History Graph

Search for Another Location

Airport or City:

Trip Planner

Search our weather history database for the weather conditions in past years. The results will help you decide how hot, cold, wet, or windy it might be!

Date:

Astronomy

Jan. 05, 2013 Rise Set
Actual Time 7:30 AM CST 5:35 PM CST
Civil Twilight 7:03 AM CST 6:02 PM CST
Nautical Twilight 6:33 AM CST 6:32 PM CST
Astronomical Twilight 6:03 AM CST 7:02 PM CST
Moon 12:49 AM CST (1/5) 12:16 PM CST (1/5)
Length of Visible Light 10h 58m
Length of Day
10h 04m
Last Quarter, 44% of the Moon is Illuminated
Jan 5
Last Quarter
Jan 11
New
Jan 18
First Quarter
Jan 26
Full
Feb 3
Last Quarter

Hourly Weather History & Observations

Time (CST) Temp. Windchill Dew Point Humidity Pressure Visibility Wind Dir Wind Speed Gust Speed Precip Events Conditions
12:15 AM 44.6 °F - 30.2 °F 57% 30.36 in 10.0 mi Calm Calm - N/A   Overcast
12:35 AM 44.6 °F 43.1 °F 32.0 °F 61% 30.36 in 10.0 mi SSW 3.5 mph - N/A   Overcast
12:55 AM 44.6 °F 42.2 °F 32.0 °F 61% 30.35 in 10.0 mi SW 4.6 mph - N/A   Overcast
1:15 AM 44.6 °F 41.4 °F 33.8 °F 66% 30.35 in 10.0 mi WSW 5.8 mph - N/A   Overcast
1:35 AM 44.6 °F 40.2 °F 33.8 °F 66% 30.36 in 10.0 mi SW 8.1 mph - N/A   Overcast
1:55 AM 44.6 °F 42.2 °F 33.8 °F 66% 30.35 in 10.0 mi WSW 4.6 mph - N/A   Overcast
2:15 AM 42.8 °F - 35.6 °F 76% 30.35 in 10.0 mi Calm Calm - N/A   Overcast
2:35 AM 42.8 °F - 35.6 °F 76% 30.35 in 10.0 mi Calm Calm - N/A   Overcast
2:55 AM 42.8 °F 40.1 °F 35.6 °F 76% 30.36 in 10.0 mi West 4.6 mph - N/A   Overcast
3:15 AM 42.8 °F 41.1 °F 35.6 °F 76% 30.36 in 10.0 mi WSW 3.5 mph - N/A   Overcast
3:35 AM 42.8 °F 41.1 °F 35.6 °F 76% 30.35 in 10.0 mi SW 3.5 mph - N/A   Overcast
3:55 AM 42.8 °F - 35.6 °F 76% 30.34 in 10.0 mi Calm Calm - N/A   Overcast
4:15 AM 42.8 °F 39.3 °F 35.6 °F 76% 30.34 in 10.0 mi South 5.8 mph - N/A   Overcast
4:35 AM 41.0 °F 35.8 °F 33.8 °F 76% 30.33 in 10.0 mi South 8.1 mph - N/A   Mostly Cloudy
4:55 AM 41.0 °F 38.0 °F 33.8 °F 76% 30.32 in 10.0 mi South 4.6 mph - N/A   Clear
5:48 AM 41.0 °F 39.0 °F 33.8 °F 76% 30.33 in 13.0 mi SW 3.5 mph - N/A   Mostly Cloudy
6:47 AM 41.0 °F 35.8 °F 35.6 °F 81% 30.33 in 13.0 mi South 8.1 mph - N/A   Mostly Cloudy
7:11 AM 39.2 °F 35.9 °F 35.6 °F 87% 30.33 in 10.0 mi South 4.6 mph - N/A   Mostly Cloudy
7:47 AM 39.2 °F 37.0 °F 35.6 °F 87% 30.34 in 10.0 mi SW 3.5 mph - N/A   Mostly Cloudy
8:47 AM 39.2 °F 34.2 °F 35.6 °F 87% 30.35 in 8.0 mi WSW 6.9 mph - N/A   Overcast
9:55 AM 41.0 °F 37.1 °F 35.6 °F 81% 30.35 in 8.0 mi SSW 5.8 mph - N/A   Overcast
10:49 AM 42.8 °F 38.0 °F 35.6 °F 76% 30.34 in 10.0 mi West 8.1 mph - N/A   Overcast
11:50 AM 44.6 °F 39.2 °F 35.6 °F 71% 30.32 in 9.0 mi SSW 10.4 mph - N/A   Overcast
12:52 PM 46.4 °F 42.4 °F 35.6 °F 66% 30.26 in 10.0 mi SSE 8.1 mph - N/A   Mostly Cloudy
1:47 PM 48.2 °F - 35.6 °F 62% 30.23 in 13.0 mi South 6.9 mph - N/A   Scattered Clouds
2:47 PM 50.0 °F - 35.6 °F 58% 30.21 in 13.0 mi South 6.9 mph - N/A   Scattered Clouds
3:47 PM 50.0 °F - 35.6 °F 58% 30.22 in 10.0 mi SSE 6.9 mph - N/A   Clear
4:47 PM 50.0 °F - 35.6 °F 58% 30.23 in 10.0 mi South 5.8 mph - N/A   Clear
5:47 PM 48.2 °F - 35.6 °F 62% 30.23 in 10.0 mi SE 5.8 mph - N/A   Clear
6:47 PM 46.4 °F 44.3 °F 35.6 °F 66% 30.24 in 13.0 mi SE 4.6 mph - N/A   Clear
7:49 PM 44.6 °F 43.1 °F 35.6 °F 71% 30.26 in 10.0 mi SE 3.5 mph - N/A   Clear
8:47 PM 44.6 °F 41.4 °F 35.6 °F 71% 30.25 in 13.0 mi SSE 5.8 mph - N/A   Clear
9:15 PM 42.8 °F 41.1 °F 35.6 °F 76% 30.26 in 10.0 mi SSE 3.5 mph - N/A   Clear
9:35 PM 44.6 °F - 35.6 °F 71% 30.27 in 10.0 mi Calm Calm - N/A   Clear
9:47 PM 44.6 °F - 35.6 °F 71% 30.27 in 15.0 mi Calm Calm - N/A   Clear
9:55 PM 44.6 °F - 35.6 °F 71% 30.27 in 10.0 mi Calm Calm - N/A   Clear
10:15 PM 42.8 °F - 35.6 °F 76% 30.28 in 10.0 mi Calm Calm - N/A   Clear
10:35 PM 42.8 °F - 35.6 °F 76% 30.28 in 10.0 mi Calm Calm - N/A   Clear
10:55 PM 42.8 °F - 33.8 °F 70% 30.28 in 10.0 mi Calm Calm - N/A   Clear
11:15 PM 41.0 °F - 35.6 °F 81% 30.29 in 10.0 mi Calm Calm - N/A   Clear
11:35 PM 41.0 °F - 35.6 °F 81% 30.29 in 10.0 mi Calm Calm - N/A   Clear
11:55 PM 41.0 °F - 35.6 °F 81% 30.29 in 10.0 mi Calm Calm - N/A   Clear